Location: Sobotiste
(48.7170°N, 17.4000°E)
Time: 21:26:00
(UTC+02:00)

Tiangong 2 - Visible Passes

Search period start: 20 May 2018 00:00
Search period end: 30 May 2018 00:00
Orbit: 382 x 386 km, 42.8° (Epoch: 20 May)

Date Brightness Start Highest point End Pass type
(mag) Time Alt. Az. Time Alt. Az. Time Alt. Az.
22 May 2.7 21:59:48 10° SSW 22:01:47 18° SSE 22:01:47 18° SSE visible
23 May 2.5 22:35:53 10° SW 22:37:44 23° SSW 22:37:44 23° SSW visible
24 May 2.4 21:36:24 10° SW 21:38:56 22° SSE 21:41:04 12° ESE visible
24 May 3.3 23:12:27 10° WSW 23:13:16 15° SW 23:13:16 15° SW visible
25 May 2.1 22:12:46 10° WSW 22:15:31 27° S 22:16:21 24° SSE visible
26 May 2.3 21:13:10 10° SW 21:15:51 26° S 21:18:32 10° ESE visible
26 May 2.6 22:49:29 10° WSW 22:51:28 22° SSW 22:51:28 22° SSW visible
27 May 2.2 21:49:43 10° WSW 21:52:26 26° S 21:54:17 16° SE visible
28 May 2.7 22:26:37 10° WSW 22:28:58 19° SSW 22:29:14 19° S visible
29 May 2.5 21:26:42 10° WSW 21:29:19 24° S 21:31:55 10° SE visible
